Location: *
(48.5226°N, 10.7301°E)
Time: 12:46:21
(UTC+00:00)

Daily predictions for brighter satellites

Satellite Brightness Start Highest point End
(mag) Time Altitude Azimuth Time Altitude Azimuth Time Altitude Azimuth
Cosmos 968 Rocket 4.4 19:56:19 10° N 20:01:09 36° ENE 20:05:58 10° SE
Cosmos 1697 Rocket 2.8 19:56:18 10° NNW 20:01:57 76° ENE 20:07:33 10° SSE
Cosmos 1980 Rocket 2.9 19:57:00 10° NNW 20:02:28 44° NE 20:07:52 10° SE
SL-16 R/B 4.2 20:00:28 10° N 20:04:24 19° NE 20:08:18 10° E
Cosmos 2369 4.1 20:05:11 10° NNW 20:10:51 55° ENE 20:16:28 10° SE
ATLAS 5 CENTAUR R/B 3.2 20:10:00 10° SE 20:11:09 11° ESE 20:12:20 10° E
Cosmos 2344 4.4 20:07:23 10° NW 20:16:06 78° NE 20:28:15 10° SE
Meteor 2-1 Rocket 4.4 20:11:12 10° N 20:16:39 58° ENE 20:22:08 10° SSE
Cosmos 1408 4.4 20:14:53 10° SE 20:16:58 15° E 20:19:03 10° NE
Resurs 01 Rocket 2.8 20:12:58 10° S 20:17:11 42° W 20:21:27 10° NNW
COSMOS 2406 3.5 20:15:17 10° S 20:20:48 49° ESE 20:26:20 10° NE
SJ 16-02 3.9 20:21:27 10° NE 20:22:00 10° NE 20:22:32 10° NE
Cosmos 2184 Rocket 4.1 20:17:32 10° N 20:23:45 85° W 20:30:00 10° S
H-2A R/B 3.3 20:21:21 10° N 20:25:36 46° WNW 20:29:54 10° SW
Cosmos 1833 Rocket 2.7 20:20:46 10° SSW 20:26:23 86° ESE 20:32:03 10° NNE
Cosmos 1867 3.8 20:24:08 10° NW 20:29:37 69° NE 20:34:38 12° SE
Cosmos 1536 Rocket 4.2 20:27:47 10° SSW 20:32:04 58° WNW 20:36:24 10° N
Cosmos 1703 3.5 20:29:21 10° SSW 20:33:10 68° W 20:37:02 10° N
CARTOSAT-1 4.1 20:30:10 10° S 20:34:24 55° W 20:38:39 10° NNW
Cosmos 1825 4.3 20:33:23 10° ESE 20:35:06 13° E 20:36:55 10° NE
Cosmos 1606 Rocket 3.5 20:31:26 10° N 20:35:47 75° E 20:39:49 12° SSE
USA 245 3.4 20:32:24 10° S 20:36:14 61° WSW 20:39:21 10° NNW
Ariane Rocket 4.0 20:33:41 10° S 20:38:31 43° W 20:43:22 10° NNW
Cosmos 2322 Rocket 4.0 20:34:22 10° N 20:38:46 22° NE 20:43:09 10° E
CZ-4B R/B 3.3 20:42:49 10° N 20:45:17 25° WNW 20:47:44 10° SW
GP-B 4.2 20:42:20 10° NNE 20:46:12 28° E 20:49:01 15° SE
USA 234 4.3 20:40:12 10° E 20:46:23 45° N 20:52:33 10° WNW
ARIANE 5 R/B 3.0 20:44:14 15° SE 20:47:47 54° ENE 20:52:06 10° N
Terra 1.9 20:44:04 14° SSE 20:48:12 74° ENE 20:52:58 10° N
SPOT 3 Rocket 4.2 20:45:01 10° S 20:50:04 52° W 20:55:11 10° NNW
SPOT 5 2.7 20:46:56 12° S 20:50:59 72° WSW 20:55:19 10° NNW
RESURS DK-1 4.5 20:49:38 10° WNW 20:52:43 20° WSW 20:55:46 10° SSW
Cosmos 2278 4.0 20:47:08 10° NNW 20:52:49 61° ENE 20:57:25 16° SE
Cosmos 2341 Rocket 4.2 20:47:57 10° N 20:54:12 60° ENE 20:59:17 16° SSE
USA 276 2.0 20:51:11 10° WNW 20:54:13 78° NNE 20:56:54 13° E
FALCON 9 DEB 3.0 20:52:16 10° WNW 20:55:33 82° NNE 20:58:00 16° ESE
Cosmos 1726 Rocket 3.5 20:53:21 10° N 20:57:42 85° W 21:01:15 15° S
Meteor 1-11 4.3 20:58:41 12° S 21:03:46 62° E 21:09:16 10° NNE
Cosmos 2082 Rocket 2.2 20:58:52 10° SSW 21:04:33 75° ESE 21:10:15 10° NNE
Cosmos 1486 Rocket 4.4 21:00:50 10° NNW 21:05:59 55° ENE 21:09:45 18° SE
ASTEX 1 3.8 21:03:32 10° NNE 21:08:23 46° E 21:11:39 19° SSE
Helios 1A Rocket 3.6 21:04:55 13° S 21:08:23 50° W 21:12:24 10° NNW
Spot 2 Rocket 4.1 21:04:02 11° S 21:08:48 53° W 21:13:49 10° NNW
Cosmos 1328 4.2 21:05:30 10° SSW 21:09:28 63° WNW 21:13:27 10° N
TIMED 4.5 21:07:04 11° SSW 21:11:15 68° ESE 21:15:36 10° NNE
Cosmos 2360 Rocket 3.9 21:08:45 10° N 21:13:26 25° NE 21:18:05 10° E
Nadezhda 1 Rocket 4.4 21:08:53 10° SSW 21:14:52 61° WNW 21:20:55 10° N
Cosmos 1932 4.4 21:12:14 10° SSW 21:18:22 66° ESE 21:24:39 10° NE
Cosmos 2181 Rocket 4.1 21:17:08 18° SSE 21:21:46 59° E 21:27:55 10° NNE
ERS-1 Rocket 3.9 21:22:06 12° SSW 21:26:27 42° W 21:31:14 10° NNW
Cosmos 1892 2.6 21:26:27 20° S 21:28:56 88° W 21:32:45 10° N
Cosmos 1602 Rocket 4.5 21:28:28 23° SE 21:30:16 32° E 21:34:09 10° NNE
Cosmos 1892 Rocket 4.5 21:38:04 10° SSW 21:42:17 45° WNW 21:46:30 10° N
Cosmos 1503 Rocket 4.1 21:39:10 10° NNW 21:44:28 69° ENE 21:47:32 25° SE
Cosmos 1980 Rocket 3.3 21:41:15 10° NW 21:46:23 36° WSW 21:50:07 17° SSW
ALOS 2 4.0 21:44:13 17° ESE 21:46:37 28° ENE 21:50:23 10° N
Cosmos 2219 Rocket 4.1 21:44:43 10° N 21:49:08 23° NE 21:53:34 10° E
SL-16 R/B 2.3 21:43:48 10° NNW 21:49:30 75° ENE 21:52:57 25° SE
Cosmos 2058 Rocket 4.0 21:46:16 10° NNW 21:50:28 42° W 21:53:20 18° SSW
Cosmos 1408 3.8 21:48:44 14° SW 21:51:19 36° WNW 21:54:34 10° N
Cosmos 1626 Rocket 3.4 21:50:06 27° S 21:52:25 82° E 21:56:48 10° NNE
SL-8 Rocket 4.3 21:47:31 10° NNW 21:53:40 63° W 21:58:01 20° S
USA 267 3.5 21:47:32 10° ENE 21:53:45 45° SE 21:59:31 12° SSW
ATLAS 5 CENTAUR R/B 1.3 21:51:04 10° SW 21:54:48 80° NW 21:59:03 10° NE
Cosmos 2058 4.4 21:53:50 21° ESE 21:55:00 24° E 21:58:22 10° NE
SJ 16-02 1.6 21:57:08 10° NNW 22:01:33 61° ENE 22:03:35 30° SE
In-Cosmos 22 Rocket 4.4 21:59:05 16° SSW 22:03:29 66° WNW 22:08:53 10° N
SL-4 R/B 2.6 22:04:44 31° ESE 22:04:44 31° ESE 22:07:10 10° ENE
Cosmos 1825 2.8 22:07:59 24° SW 22:09:59 52° WNW 22:13:39 10° N
Cosmos 2221 4.3 22:09:52 10° NNE 22:13:20 23° ENE 22:15:26 16° ESE
Cosmos 1869 4.2 22:13:05 10° NNW 22:16:45 39° W 22:18:25 26° SW
Cosmos 2322 Rocket 2.2 22:17:50 10° NNW 22:23:34 85° WSW 22:26:28 30° SSE
Terra 4.2 22:23:46 10° WSW 22:26:30 15° W 22:29:15 10° NW
USA 234 3.4 22:22:25 10° ESE 22:28:58 77° NNE 22:35:33 10° NW
USA 276 3.6 22:27:05 10° W 22:28:43 23° WSW 22:28:43 23° WSW
Cosmos 1934 Rocket 4.3 22:25:25 10° N 22:31:26 58° ENE 22:34:46 27° SE
Meteor 2-20 Rocket 4.4 22:33:21 30° S 22:36:36 76° E 22:42:42 10° NNE
BREEZE-M DEB (TANK) 3.8 22:34:00 10° WNW 22:37:26 83° SSW 22:51:30 10° ESE
Cosmos 1633 3.4 22:39:00 30° SW 22:40:12 42° WNW 22:43:32 10° N
Cosmos 1758 Rocket 3.9 22:42:24 30° SW 22:44:23 58° WNW 22:48:45 10° N
Cosmos 2333 Rocket 2.6 22:38:47 10° NNW 22:44:31 61° ENE 22:48:06 23° SE
Cosmos 1238 4.3 22:44:13 58° SSW 22:44:45 78° W 22:48:25 10° N
Cosmos 2082 Rocket 4.3 22:44:36 10° W 22:49:15 25° NW 22:53:54 10° N
COSMOS 2487 3.9 22:52:54 21° E 22:52:54 21° E 22:54:49 10° NE
Cosmos 1606 3.2 22:49:38 10° NNW 22:53:23 50° W 22:54:21 39° SW
Cosmos-2242 3.9 22:49:45 10° NNW 22:53:43 39° W 22:55:10 29° SW
ADEOS Rocket 3.6 22:53:13 28° S 22:57:33 76° WSW 23:05:24 10° NNW
Cosmos 2360 Rocket 2.2 22:52:20 10° NNW 22:58:00 72° WSW 23:00:32 34° S
ISS -2.1 23:00:49 23° E 23:00:49 23° E 23:02:22 10° ENE
Cosmos 1340 Rocket 2.7 22:58:42 50° S 22:59:40 82° E 23:03:39 10° NNE
Gbstr 26 Del rocket 3.0 22:59:00 27° SW 23:01:19 70° SSE 23:06:26 10° ENE
Meteor 2-3 Rocket 4.4 23:04:49 27° SE 23:07:10 41° E 23:12:22 10° NNE
Cosmos 375 4.5 23:05:38 38° SSW 23:07:13 82° SE 23:12:18 10° NE
Cosmos 2333 4.2 23:01:49 10° NNW 23:07:39 87° ENE 23:10:38 30° SSE
Cosmos 1076 Rocket 4.5 23:09:44 30° SE 23:10:59 36° E 23:15:00 10° NNE
BREEZE-M DEB (TANK) 3.0 23:12:24 45° SE 23:12:24 45° SE 23:17:06 10° ENE
SL-27 R/B 2.7 23:13:18 46° ESE 23:13:18 46° ESE 23:16:25 10° NNE
Meteor 2-11 Rocket 4.4 23:08:17 10° NNW 23:14:26 82° W 23:17:23 33° S
NOSS 3-2 (A) 4.2 23:13:40 27° SE 23:15:08 31° ESE 23:20:27 10° NE
Cosmos 44 3.0 23:14:09 36° SSW 23:15:59 85° SE 23:20:27 10° NE
Cosmos 972 Rocket 4.2 23:11:04 10° NNW 23:16:16 68° WSW 23:18:41 34° S
Cosmos 1833 4.1 23:14:26 32° SSW 23:17:12 86° ESE 23:22:50 10° NNE
Cosmos 1782 3.6 23:17:12 10° N 23:21:01 42° ENE 23:22:20 31° ESE
ERS-2 2.0 23:18:41 10° NNE 23:22:17 87° W 23:22:56 58° SSW
ALOS 2 3.6 23:21:37 29° SW 23:22:51 35° W 23:26:54 10° NNW
Cosmos 2237 Rocket 3.9 23:19:19 10° NNW 23:24:15 29° NE 23:29:08 10° ESE
CENTAUR R/B 3.2 23:22:31 28° SSE 23:24:31 35° ESE 23:30:36 10° NE
Cosmos 1605 Rocket 4.0 23:18:41 10° N 23:25:09 88° E 23:28:27 31° S
COSMOS 2428 2.9 23:25:13 10° NNW 23:30:56 69° ENE 23:34:37 23° SE
Cosmos 2297 Rocket 4.1 23:29:19 13° SE 23:31:34 16° E 23:34:53 10° ENE
Cosmos 2058 4.1 23:29:58 24° WSW 23:31:41 34° WNW 23:35:32 10° N
Cosmos 2151 3.6 23:31:03 35° SE 23:32:18 46° E 23:36:27 10° NNE
SL-16 R/B 3.8 23:29:02 10° NW 23:32:58 20° W 23:34:48 17° SW
Cosmos 2219 Rocket 2.1 23:28:06 10° NNW 23:33:49 84° WSW 23:36:40 31° SSE
Cosmos 1953 Rocket 4.2 23:33:03 31° SW 23:34:46 48° WNW 23:39:03 10° N
USA 267 3.5 23:30:30 10° NE 23:37:02 73° NNW 23:43:32 10° WSW
SJ 16-02 3.3 23:36:51 10° WNW 23:39:36 16° W 23:40:31 15° WSW
ATLAS 5 CENTAUR R/B 4.1 23:37:07 10° WNW 23:40:06 19° NNW 23:43:24 10° NNE
Cosmos 2322 3.6 23:37:17 10° NNW 23:42:58 78° WSW 23:45:45 31° SSE
SL-4 R/B 2.0 23:40:05 13° W 23:43:07 65° NNW 23:46:51 10° ENE
Cosmos 1898 Rocket 3.5 23:39:05 10° NNW 23:44:17 76° ENE 23:47:02 28° SSE
Cosmos 1937 Rocket 3.8 23:44:14 10° NNW 23:49:28 63° ENE 23:52:46 22° SE
Cosmos 2221 3.3 23:46:56 10° NNW 23:51:02 40° W 23:52:14 33° SW
COSMOS 2455 3.7 23:45:53 10° NNW 23:51:45 49° NE 23:57:34 10° ESE
PSLV R/B 4.0 23:48:55 10° N 23:53:38 63° WNW 23:55:36 33° SW
Cosmos 1184 Rocket 4.2 23:54:15 10° N 23:56:55 28° ENE 23:57:49 23° ESE
